Location: Brachbach
(49.1847°N, 9.7240°E)
Time: 20:50:35
(UTC+00:00)

Cosmos 2219 Rocket - Pass Details

Date: 16 August 2024
Orbit: 826 x 846 km, 71.0° (Epoch: 09 September)

Event Time Altitude Azimuth Distance (km) Brightness Sun altitude
Exits shadow 01:55:23 - 279° (W) 2,525 4.4 -19.0°
Reaches altitude 10° 01:55:36 10° 281° (W) 2,473 4.4 -19.0°
Maximum altitude 01:59:26 18° 324° (NW) 1,961 4.2 -18.6°
Drops below altitude 10° 02:03:17 10° 7° (N) 2,482 5.5 -18.2°
Sets 02:06:34 0° 26° (NNE) 3,419 6.8 -17.8°
